Beauvais-Tillé Airport

Airport
ICAO code: 
LFOB
IATA Code: 
BVA
Summary
ICAO Region: 
EUR
Territory: 
Location: 
Tillé, Picardie
Serving: 
Beauvais
Elevation: 
359 ft
Coordinates: 
Aerial View: 
49° 27' 12.357" N, 2° 6' 54.658" E
Metar
Observation
LFOB 060500Z AUTO 34004KT 9999 BKN010 OVC024 03/02 Q1014 TEMPO 3000 BR
Station
Beauvais
Date/Time
2021-12-06 05:00:00
Wind direction
340°
Wind speed
04 kts
Lowest cloud amount
broken clouds
Temperature
3°C
Dew point
2°C
Humidity
93%
QNH
1014 hPa
Weather condition
n/a

Description

Airport serving Beauvais.

Climatology

Temperate Marine climate/Oceanic climate (Köppen climate classification Cfb). Moderately cool summer and comparatively warm winter. Prevailing south-westerly winds from the Atlantic Ocean.

Runways

Designator Length Width Surface Rops
13R/31L 0 0 UNK No/No
4/22 1105 30 ASP Yes/Yes
13/31 2430 45 ASP Yes/Yes
Airport map: 
Aerial View: 

SKYbrary Partners:

Safety knowledge contributed by: